EW8094 Weather Reports


Display with metric or nautical units.
time (UTC)temp
F
wind
direction
speed
MPH
gust
MPH
rain 1hr
in
rain 24hr
in
rain mn
in
humidity
%
barometer
mb
20181119201007 62 288 1.0 3.0 0.00 0.00 0.00 47 1017.0
20181119200507 62 266 1.0 3.0 0.00 0.00 0.00 51 1017.1
20181119200012 61 312 1.0 3.0 0.00 0.00 0.00 49 1017.1
20181119195507 61 309 1.0 3.0 0.00 0.00 0.00 51 1017.2
20181119195007 60 307 1.0 3.0 0.00 0.00 0.00 49 1017.3
20181119194506 60 288 1.0 3.0 0.00 0.00 0.00 49 1017.4
20181119194004 60 286 1.0 3.0 0.00 0.00 0.00 51 1017.4
20181119193505 60 286 1.0 2.0 0.00 0.00 0.00 52 1017.4
20181119193006 59 286 1.0 2.0 0.00 0.00 0.00 50 1017.5
20181119192505 59 286 1.0 2.0 0.00 0.00 0.00 50 1017.5
20181119192005 59 286 1.0 3.0 0.00 0.00 0.00 50 1017.7
20181119191505 59 286 1.0 3.0 0.00 0.00 0.00 51 1017.7
20181119191005 58 286 1.0 3.0 0.00 0.00 0.00 54 1017.8
20181119190505 58 355 1.0 2.0 0.00 0.00 0.00 52 1017.8
20181119190005 58 355 1.0 2.0 0.00 0.00 0.00 53 1018.0
20181119185503 58 34 0.0 2.0 0.00 0.00 0.00 53 1018.0
20181119185004 58 33 1.0 2.0 0.00 0.00 0.00 52 1018.3
20181119184502 58 26 1.0 2.0 0.00 0.00 0.00 53 1018.4
20181119184002 57 46 0.0 2.0 0.00 0.00 0.00 52 1018.4
20181119183504 57 46 1.0 2.0 0.00 0.00 0.00 52 1018.5
20181119183003 57 46 1.0 3.0 0.00 0.00 0.00 53 1018.5
20181119182503 56 45 1.0 3.0 0.00 0.00 0.00 56 1018.5
20181119182003 56 33 1.0 3.0 0.00 0.00 0.00 58 1018.5
20181119181501 55 31 2.0 3.0 0.00 0.00 0.00 58 1018.6
20181119181001 55 15 2.0 3.0 0.00 0.00 0.00 60 1018.6
20181119180457 54 5 1.0 3.0 0.00 0.00 0.00 62 1018.5
20181119175955 53 83 1.0 2.0 0.00 0.00 0.00 63 1018.7
20181119175455 53 112 0.0 2.0 0.00 0.00 0.00 63 1018.7
20181119174955 52 101 0.0 2.0 0.00 0.00 0.00 65 1018.8
20181119174455 52 101 0.0 2.0 0.00 0.00 0.00 67 1018.8
20181119173955 51 101 0.0 2.0 0.00 0.00 0.00 67 1018.7
20181119173455 51 101 1.0 2.0 0.00 0.00 0.00 67 1018.7
20181119172955 51 98 1.0 2.0 0.00 0.00 0.00 69 1018.6
20181119172456 50 98 0.0 1.0 0.00 0.00 0.00 69 1018.6
20181119171954 50 98 0.0 1.0 0.00 0.00 0.00 69 1018.6
20181119171453 49 98 0.0 1.0 0.00 0.00 0.00 68 1018.5
20181119170954 49 98 0.0 1.0 0.00 0.00 0.00 69 1018.5
20181119170453 48 98 0.0 1.0 0.00 0.00 0.00 69 1018.5
20181119165953 47 98 0.0 1.0 0.00 0.00 0.00 71 1018.5
20181119165453 47 98 0.0 1.0 0.00 0.00 0.00 72 1018.4
20181119164954 46 98 0.0 1.0 0.00 0.00 0.00 72 1018.4
20181119164453 46 98 1.0 1.0 0.00 0.00 0.00 72 1018.3
20181119163953 45 98 1.0 2.0 0.00 0.00 0.00 73 1018.1
20181119163453 45 98 0.0 2.0 0.00 0.00 0.00 74 1018.3
20181119162953 44 98 0.0 1.0 0.00 0.00 0.00 75 1018.3
20181119162452 44 98 0.0 1.0 0.00 0.00 0.00 77 1018.3
20181119161952 43 98 0.0 1.0 0.00 0.00 0.00 78 1018.3
20181119161451 42 98 0.0 2.0 0.00 0.00 0.00 78 1018.1
20181119160950 41 98 0.0 2.0 0.00 0.00 0.00 79 1018.0
20181119160450 40 96 0.0 2.0 0.00 0.00 0.00 80 1018.0
20181119155949 40 84 0.0 1.0 0.00 0.00 0.00 80 1018.0
20181119155449 39 84 1.0 3.0 0.00 0.00 0.00 80 1018.0
20181119154949 38 84 2.0 3.0 0.00 0.00 0.00 81 1017.9
20181119154449 38 88 2.0 3.0 0.00 0.00 0.00 81 1017.9
20181119153950 38 88 2.0 3.0 0.00 0.00 0.00 81 1018.0
20181119153449 37 88 2.0 3.0 0.00 0.00 0.00 81 1018.0
20181119152949 37 88 1.0 3.0 0.00 0.00 0.00 82 1018.0
20181119152449 37 89 1.0 2.0 0.00 0.00 0.00 82 1018.0
20181119151950 37 89 1.0 2.0 0.00 0.00 0.00 82 1018.0
20181119151450 36 89 1.0 2.0 0.00 0.00 0.00 82 1018.0
20181119150949 36 89 0.0 2.0 0.00 0.00 0.00 82 1018.0
20181119150449 36 89 1.0 3.0 0.00 0.00 0.00 82 1018.0
20181119145950 36 89 1.0 3.0 0.00 0.00 0.00 82 1017.9
20181119145450 36 116 0.0 3.0 0.00 0.00 0.00 82 1017.9
20181119144949 36 116 1.0 3.0 0.00 0.00 0.00 82 1017.9
20181119144449 36 91 1.0 2.0 0.00 0.00 0.00 82 1017.9
20181119143949 36 90 0.0 2.0 0.00 0.00 0.00 82 1017.9
20181119143452 36 89 0.0 1.0 0.00 0.00 0.00 82 1017.9
20181119142948 36 89 1.0 2.0 0.00 0.00 0.00 82 1017.8
20181119142449 36 89 2.0 3.0 0.00 0.00 0.00 83 1017.9
20181119141947 36 90 1.0 3.0 0.00 0.00 0.00 83 1017.8
20181119141447 36 103 1.0 2.0 0.00 0.00 0.00 83 1017.8
20181119140947 36 103 1.0 3.0 0.00 0.00 0.00 83 1017.8
20181119140447 36 103 1.0 3.0 0.00 0.00 0.00 83 1017.8
20181119135948 36 157 1.0 2.0 0.00 0.00 0.00 83 1017.8
20181119135447 37 157 0.0 2.0 0.00 0.00 0.00 83 1017.8
20181119134947 37 157 0.0 1.0 0.00 0.00 0.00 82 1017.7
20181119134445 37 157 0.0 2.0 0.00 0.00 0.00 82 1017.7
20181119133945 37 157 1.0 2.0 0.00 0.00 0.00 82 1017.6
20181119133444 37 157 1.0 2.0 0.00 0.00 0.00 81 1017.7
20181119132944 37 157 0.0 1.0 0.00 0.00 0.00 81 1017.6
20181119132444 37 157 0.0 0.0 0.00 0.00 0.00 80 1017.4
20181119131943 37 157 0.0 1.0 0.00 0.00 0.00 80 1017.4
20181119131443 37 157 0.0 1.0 0.00 0.00 0.00 79 1017.4
20181119130944 38 157 0.0 2.0 0.00 0.00 0.00 81 1017.5
20181119130444 38 157 0.0 2.0 0.00 0.00 0.00 81 1017.5
20181119125943 38 156 0.0 2.0 0.00 0.00 0.00 80 1017.3
20181119125442 38 157 0.0 2.0 0.00 0.00 0.00 81 1017.3
20181119124943 38 157 0.0 1.0 0.00 0.00 0.00 80 1017.2
20181119124441 38 157 0.0 1.0 0.00 0.00 0.00 80 1017.2
20181119123941 38 157 0.0 1.0 0.00 0.00 0.00 80 1017.3
20181119123441 38 157 0.0 1.0 0.00 0.00 0.00 80 1017.2
20181119122942 38 157 0.0 1.0 0.00 0.00 0.00 80 1017.3
20181119122442 38 156 0.0 2.0 0.00 0.00 0.00 80 1017.3
20181119121941 38 157 1.0 2.0 0.00 0.00 0.00 79 1017.3
20181119121441 38 157 1.0 2.0 0.00 0.00 0.00 80 1017.2
20181119120942 38 163 0.0 1.0 0.00 0.00 0.00 79 1017.3
20181119120439 38 163 1.0 1.0 0.00 0.00 0.00 79 1017.5
20181119115939 38 163 0.0 1.0 0.00 0.00 0.00 78 1017.4
20181119115439 38 163 0.0 1.0 0.00 0.00 0.00 78 1017.5
20181119114937 39 163 0.0 1.0 0.00 0.00 0.00 78 1017.5
20181119114435 39 163 0.0 1.0 0.00 0.00 0.00 78 1017.5
20181119113935 39 163 0.0 1.0 0.00 0.00 0.00 78 1017.5
20181119113440 39 163 0.0 1.0 0.00 0.00 0.00 78 1017.5
20181119112935 39 163 0.0 1.0 0.00 0.00 0.00 78 1017.5
20181119112434 39 163 0.0 2.0 0.00 0.00 0.00 77 1017.5
20181119111929 39 163 0.0 2.0 0.00 0.00 0.00 77 1017.5
20181119111427 40 163 1.0 2.0 0.00 0.00 0.00 75 1017.5
20181119110928 40 163 1.0 2.0 0.00 0.00 0.00 75 1017.5
20181119110433 40 150 1.0 2.0 0.00 0.00 0.00 77 1017.6
20181119105926 40 78 0.0 1.0 0.00 0.00 0.00 77 1017.5
20181119105426 40 78 0.0 1.0 0.00 0.00 0.00 77 1017.4
20181119104923 40 78 0.0 1.0 0.00 0.00 0.00 76 1017.5
20181119104425 41 78 0.0 1.0 0.00 0.00 0.00 77 1017.5
20181119103922 41 78 0.0 1.0 0.00 0.00 0.00 77 1017.5
20181119103421 41 78 0.0 2.0 0.00 0.00 0.00 77 1017.5
20181119102920 41 78 0.0 2.0 0.00 0.00 0.00 77 1017.5
20181119102419 41 78 0.0 1.0 0.00 0.00 0.00 77 1017.6
20181119101919 41 78 0.0 0.0 0.00 0.00 0.00 77 1017.5
20181119101419 41 78 0.0 0.0 0.00 0.00 0.00 77 1017.6
20181119100919 41 78 0.0 0.0 0.00 0.00 0.00 77 1017.5
20181119100420 41 78 0.0 0.0 0.00 0.00 0.00 77 1017.6
20181119095920 41 78 0.0 0.0 0.00 0.00 0.00 77 1017.7
20181119095420 41 78 0.0 1.0 0.00 0.00 0.00 77 1017.6
20181119094919 41 78 0.0 1.0 0.00 0.00 0.00 77 1017.6
20181119094421 41 78 0.0 1.0 0.00 0.00 0.00 77 1017.5
20181119093919 41 78 0.0 2.0 0.00 0.00 0.00 77 1017.5
20181119093419 41 78 0.0 2.0 0.00 0.00 0.00 77 1017.6
20181119092919 41 78 1.0 1.0 0.00 0.00 0.00 78 1017.6
20181119092419 41 78 1.0 3.0 0.00 0.00 0.00 78 1017.6
20181119091919 41 78 2.0 3.0 0.00 0.00 0.00 78 1017.5
20181119091419 41 78 1.0 3.0 0.00 0.00 0.00 79 1017.6
20181119090919 41 78 1.0 1.0 0.00 0.00 0.00 78 1017.6
20181119090419 41 78 1.0 2.0 0.00 0.00 0.00 78 1017.6
20181119085919 42 78 0.0 2.0 0.00 0.00 0.00 77 1017.7
20181119085421 42 78 0.0 1.0 0.00 0.00 0.00 77 1017.7
20181119084919 42 78 0.0 1.0 0.00 0.00 0.00 77 1017.7
20181119084419 42 78 0.0 1.0 0.00 0.00 0.00 77 1017.8
20181119083921 42 78 0.0 1.0 0.00 0.00 0.00 76 1017.8
20181119083420 42 78 0.0 1.0 0.00 0.00 0.00 75 1017.8
20181119082919 42 78 0.0 1.0 0.00 0.00 0.00 75 1017.9
20181119082419 43 78 0.0 1.0 0.00 0.00 0.00 75 1017.8
20181119081920 43 78 0.0 1.0 0.00 0.00 0.00 75 1017.9
20181119081420 43 78 0.0 0.0 0.00 0.00 0.00 75 1017.8
20181119080919 43 78 0.0 0.0 0.00 0.00 0.00 75 1017.8
20181119080419 44 78 0.0 0.0 0.00 0.00 0.00 75 1017.8
20181119075919 44 78 0.0 0.0 0.00 0.00 0.00 75 1017.9
20181119075416 44 78 0.0 0.0 0.00 0.00 0.00 75 1017.9
20181119074916 44 78 0.0 0.0 0.00 0.00 0.00 75 1017.9
20181119074416 44 78 0.0 1.0 0.00 0.00 0.00 76 1017.9
20181119073915 44 78 0.0 1.0 0.00 0.00 0.00 76 1017.9
20181119073415 44 78 1.0 2.0 0.00 0.00 0.00 75 1017.9
20181119072915 44 78 1.0 3.0 0.00 0.00 0.00 76 1017.9
20181119072415 44 78 1.0 3.0 0.00 0.00 0.00 76 1017.9
20181119071916 44 78 0.0 1.0 0.00 0.00 0.00 76 1017.9
20181119071415 44 78 0.0 1.0 0.00 0.00 0.00 76 1018.0
20181119070916 44 78 1.0 2.0 0.00 0.00 0.00 76 1018.0
20181119070414 44 78 1.0 2.0 0.00 0.00 0.00 77 1018.1
20181119065913 44 78 1.0 2.0 0.00 0.00 0.00 77 1018.1
20181119065413 44 78 1.0 1.0 0.00 0.00 0.00 77 1018.0
20181119064913 45 78 0.0 1.0 0.00 0.00 0.00 77 1018.1
20181119064413 45 78 0.0 2.0 0.00 0.00 0.00 77 1018.0
20181119063913 45 78 0.0 2.0 0.00 0.00 0.00 77 1018.1
20181119063413 45 78 1.0 2.0 0.00 0.00 0.00 78 1018.0
20181119062914 45 78 1.0 2.0 0.00 0.00 0.00 77 1018.1
20181119062414 45 78 1.0 2.0 0.00 0.00 0.00 77 1018.1
20181119061913 45 78 1.0 2.0 0.00 0.00 0.00 76 1018.0
20181119061413 45 78 0.0 1.0 0.00 0.00 0.00 75 1018.0
20181119060911 46 78 0.0 1.0 0.00 0.00 0.00 75 1018.0
20181119060412 46 78 0.0 1.0 0.00 0.00 0.00 74 1018.1
20181119055911 46 78 0.0 1.0 0.00 0.00 0.00 74 1018.1
20181119055411 46 78 0.0 1.0 0.00 0.00 0.00 74 1018.1
20181119054912 46 78 1.0 1.0 0.00 0.00 0.00 74 1018.0
20181119054412 46 78 1.0 2.0 0.00 0.00 0.00 74 1018.1
20181119053911 47 78 1.0 2.0 0.00 0.00 0.00 73 1018.0
20181119053411 47 78 0.0 1.0 0.00 0.00 0.00 73 1018.0
20181119052910 47 78 1.0 2.0 0.00 0.00 0.00 73 1018.0
20181119052411 47 78 0.0 2.0 0.00 0.00 0.00 73 1018.1
20181119051909 47 78 0.0 1.0 0.00 0.00 0.00 73 1017.9
20181119051410 47 78 0.0 1.0 0.00 0.00 0.00 73 1017.8
20181119050911 47 78 0.0 1.0 0.00 0.00 0.00 72 1017.8
20181119050409 47 78 1.0 3.0 0.00 0.00 0.00 73 1017.8
20181119045909 47 78 1.0 3.0 0.00 0.00 0.00 73 1017.9
20181119045409 47 78 1.0 3.0 0.00 0.00 0.00 73 1017.9
20181119044909 47 78 1.0 3.0 0.00 0.00 0.00 73 1017.8
20181119044409 48 57 1.0 3.0 0.00 0.00 0.00 74 1017.8
20181119043909 48 55 1.0 3.0 0.00 0.00 0.00 74 1017.7
20181119043410 48 308 1.0 2.0 0.00 0.00 0.00 73 1017.7
20181119042909 48 304 0.0 1.0 0.00 0.00 0.00 73 1017.7
20181119042409 48 304 0.0 1.0 0.00 0.00 0.00 72 1017.6
20181119041909 48 304 0.0 2.0 0.00 0.00 0.00 71 1017.6
20181119041409 48 304 1.0 2.0 0.00 0.00 0.00 71 1017.5
20181119040909 49 304 1.0 2.0 0.00 0.00 0.00 71 1017.5
20181119040409 49 304 1.0 2.0 0.00 0.00 0.00 69 1017.3
20181119035908 49 304 1.0 2.0 0.00 0.00 0.00 69 1017.3
20181119035408 49 304 1.0 2.0 0.00 0.00 0.00 69 1017.3
20181119034907 50 304 1.0 2.0 0.00 0.00 0.00 70 1017.2
20181119034405 50 304 1.0 2.0 0.00 0.00 0.00 69 1017.2
20181119033904 50 304 1.0 2.0 0.00 0.00 0.00 67 1017.1
20181119033404 50 306 0.0 2.0 0.00 0.00 0.00 67 1017.0
20181119032903 51 306 0.0 2.0 0.00 0.00 0.00 66 1017.0
20181119032404 51 306 0.0 2.0 0.00 0.00 0.00 66 1017.0
20181119031902 51 306 0.0 1.0 0.00 0.00 0.00 65 1017.0
20181119031400 52 306 0.0 2.0 0.00 0.00 0.00 66 1016.9
20181119030858 52 306 0.0 2.0 0.00 0.00 0.00 67 1016.8
20181119030357 53 306 0.0 1.0 0.00 0.00 0.00 65 1016.7
20181119025857 53 306 0.0 1.0 0.00 0.00 0.00 64 1016.7
20181119025358 53 306 0.0 1.0 0.00 0.00 0.00 63 1016.6
20181119024857 53 306 0.0 2.0 0.00 0.00 0.00 63 1016.5
20181119024357 54 306 0.0 2.0 0.00 0.00 0.00 63 1016.5
20181119023857 54 305 0.0 1.0 0.00 0.00 0.00 62 1016.4
20181119023358 54 305 0.0 1.0 0.00 0.00 0.00 61 1016.4
20181119022857 54 305 0.0 1.0 0.00 0.00 0.00 60 1016.4
20181119022355 55 305 0.0 1.0 0.00 0.00 0.00 59 1016.4
20181119021855 55 305 0.0 1.0 0.00 0.00 0.00 59 1016.3
20181119021355 55 305 1.0 1.0 0.00 0.00 0.00 58 1016.2
20181119020855 56 305 1.0 2.0 0.00 0.00 0.00 57 1016.2
20181119020355 56 305 0.0 2.0 0.00 0.00 0.00 59 1016.1
20181119015855 57 306 0.0 1.0 0.00 0.00 0.00 58 1016.1
20181119015356 57 306 1.0 2.0 0.00 0.00 0.00 57 1015.9
20181119014853 58 306 1.0 2.0 0.00 0.00 0.00 57 1015.9
20181119014353 58 306 1.0 2.0 0.00 0.00 0.00 56 1015.9
20181119013853 58 306 1.0 2.0 0.00 0.00 0.00 55 1015.9
20181119013353 58 306 0.0 2.0 0.00 0.00 0.00 54 1015.9
20181119012853 59 306 0.0 1.0 0.00 0.00 0.00 53 1015.9
20181119012353 59 306 0.0 1.0 0.00 0.00 0.00 52 1015.9
20181119011854 60 306 1.0 2.0 0.00 0.00 0.00 52 1015.9
20181119011353 60 306 1.0 2.0 0.00 0.00 0.00 52 1015.9
20181119010853 60 306 0.0 1.0 0.00 0.00 0.00 51 1015.9
20181119010353 61 306 0.0 1.0 0.00 0.00 0.00 50 1015.9
20181119005853 62 306 0.0 1.0 0.00 0.00 0.00 50 1015.9
20181119005353 62 306 0.0 2.0 0.00 0.00 0.00 49 1016.0
20181119004853 63 306 0.0 2.0 0.00 0.00 0.00 49 1015.9
20181119004353 63 306 1.0 2.0 0.00 0.00 0.00 48 1015.7
20181119003853 64 306 1.0 2.0 0.00 0.00 0.00 48 1015.7
20181119003353 64 306 1.0 3.0 0.00 0.00 0.00 47 1015.8
20181119002853 65 306 2.0 3.0 0.00 0.00 0.00 46 1015.8
20181119002354 65 306 2.0 3.0 0.00 0.00 0.00 45 1015.8
20181119001851 65 306 2.0 3.0 0.00 0.00 0.00 44 1015.8
20181119001351 65 306 2.0 3.0 0.00 0.00 0.00 44 1015.8
20181119000849 66 313 2.0 4.0 0.00 0.00 0.00 43 1015.8
20181119000350 66 319 2.0 4.0 0.00 0.00 0.00 43 1015.7
20181118235848 66 296 2.0 4.0 0.00 0.00 0.00 43 1015.8
20181118235347 66 306 2.0 4.0 0.00 0.00 0.00 43 1015.8
20181118234845 66 308 2.0 4.0 0.00 0.00 0.00 43 1015.7
20181118234345 66 326 2.0 4.0 0.00 0.00 0.00 43 1015.7
20181118233847 66 298 2.0 4.0 0.00 0.00 0.00 43 1015.7
20181118233345 66 301 2.0 4.0 0.00 0.00 0.00 42 1015.7
20181118232846 67 306 3.0 4.0 0.00 0.00 0.00 41 1015.8
20181118232346 67 300 3.0 5.0 0.00 0.00 0.00 41 1015.8
20181118231845 67 293 3.0 5.0 0.00 0.00 0.00 42 1015.9
20181118231345 67 331 3.0 5.0 0.00 0.00 0.00 41 1016.0
20181118230846 67 316 2.0 5.0 0.00 0.00 0.00 41 1015.9
20181118230347 67 287 2.0 7.0 0.00 0.00 0.00 41 1015.9
20181118225846 67 328 3.0 7.0 0.00 0.00 0.00 41 1015.9
20181118225346 67 275 3.0 5.0 0.00 0.00 0.00 41 1015.9
20181118224846 67 285 2.0 5.0 0.00 0.00 0.00 41 1015.9
20181118224347 67 290 3.0 5.0 0.00 0.00 0.00 41 1015.9
20181118223845 67 273 3.0 5.0 0.00 0.00 0.00 41 1016.0
20181118223345 68 303 2.0 7.0 0.00 0.00 0.00 40 1016.1
20181118222846 68 298 2.0 7.0 0.00 0.00 0.00 40 1016.1
20181118222346 68 281 2.0 4.0 0.00 0.00 0.00 41 1016.1
20181118221846 68 340 2.0 6.0 0.00 0.00 0.00 40 1016.2
20181118221346 68 252 2.0 6.0 0.00 0.00 0.00 41 1016.2
20181118220846 68 290 2.0 5.0 0.00 0.00 0.00 41 1016.2
20181118220346 68 291 2.0 5.0 0.00 0.00 0.00 41 1016.3
20181118215845 68 333 2.0 5.0 0.00 0.00 0.00 40 1016.3
20181118215346 68 276 1.0 5.0 0.00 0.00 0.00 41 1016.4
20181118214846 68 267 2.0 4.0 0.00 0.00 0.00 41 1016.4
20181118214345 68 269 2.0 4.0 0.00 0.00 0.00 42 1016.5
20181118213845 68 279 1.0 4.0 0.00 0.00 0.00 42 1016.5
20181118213345 68 304 1.0 3.0 0.00 0.00 0.00 42 1016.6
20181118212847 67 295 1.0 5.0 0.00 0.00 0.00 42 1016.6
20181118212344 67 250 2.0 7.0 0.00 0.00 0.00 43 1016.6
20181118211844 67 256 3.0 7.0 0.00 0.00 0.00 42 1016.6
20181118211344 67 251 2.0 6.0 0.00 0.00 0.00 42 1016.7
20181118210844 67 266 2.0 4.0 0.00 0.00 0.00 41 1016.7
20181118210343 67 261 1.0 4.0 0.00 0.00 0.00 41 1016.7
20181118205843 67 279 1.0 4.0 0.00 0.00 0.00 42 1016.8
20181118205344 67 279 2.0 4.0 0.00 0.00 0.00 42 1016.8
20181118204843 67 263 2.0 5.0 0.00 0.00 0.00 42 1016.9
20181118204343 67 270 2.0 8.0 0.00 0.00 0.00 42 1016.9
20181118203843 67 270 3.0 8.0 0.00 0.00 0.00 42 1017.0
20181118203341 67 261 3.0 7.0 0.00 0.00 0.00 41 1017.0
20181118202841 67 294 3.0 8.0 0.00 0.00 0.00 43 1017.1
20181118202342 67 264 3.0 8.0 0.00 0.00 0.00 42 1017.1
20181118201842 67 259 3.0 6.0 0.00 0.00 0.00 43 1017.1
20181118201342 67 280 2.0 7.0 0.00 0.00 0.00 43 1017.2